Miscellaneous Local Product
Issued by NWS Hastings, NE

Home | Current Version | Previous Version | Text Only | Print | Product List | Glossary Off
Versions: 1 2 3 4 5 6 7 8 9 10 11 12 13 14 15 16 17 18 19 20 21 22 23 24 25 26 27 28 29 30 31 32 33 34 35 36 37 38 39 40 41 42 43 44 45 46 47 48 49 50

000
AXUS43 KGID 021912
MISGRI

GID CWA HOURLY WEATHER ROUNDUP
NATIONAL WEATHER SERVICE HASTINGS NE
200 PM CDT SAT MAY 02 2015

NOTE: "FAIR" INDICATES FEW OR NO CLOUDS BELOW 12,000 FEET WITH NO
SIGNIFICANT WEATHER AND/OR OBSTRUCTIONS TO VISIBILITY.

...SOUTH CENTRAL NEBRASKA...

CITY           SKY/WX    TMP DP  RH WIND       PRES   REMARKS
GRAND ISLAND   SUNNY     80  52  37 VRB7G23   29.82F
HASTINGS       SUNNY     82  53  36 SW9G18    29.82F
KEARNEY        SUNNY     82  52  34 S14G21    29.82F
ORD            SUNNY     80  49  33 SW12G22   29.80F
YORK           SUNNY     81  55  41 S12       29.83F
AURORA         SUNNY     80  49  33 S12G18    29.82F
LEXINGTON      SUNNY     82  52  35 SW8       29.82F
HOLDREGE       SUNNY     81  46  29 S8G23     29.83F
HEBRON         SUNNY     80  51  35 SW15G21   29.86F

...NEBRASKA PANHANDLE...

CITY           SKY/WX    TMP DP  RH WIND       PRES   REMARKS
CHADRON        SUNNY     80  35  19 SW14      29.77F
ALLIANCE       SUNNY     80  29  15 W17G29    29.82F
SCOTTSBLUFF    SUNNY     80  27  14 W13G30    29.85F
SIDNEY         MOSUNNY   78  35  21 W12       29.89F

...WESTERN AND NORTH CENTRAL NEBRASKA...

CITY           SKY/WX    TMP DP  RH WIND       PRES   REMARKS
VALENTINE      SUNNY     81  41  24 S14G22    29.77F
AINSWORTH      SUNNY     79  43  28 SE12G17   29.80F
ONEILL         SUNNY     80  49  34 S5        29.81F
BROKEN BOW     SUNNY     82  49  31 S9G18     29.82F
IMPERIAL       SUNNY     82  42  24 W10G18    29.85F
NORTH PLATTE   SUNNY     79  51  37 S12G23    29.81F
MCCOOK         MOSUNNY   86  47  25 SW14      29.82F

...EASTERN NEBRASKA...

CITY           SKY/WX    TMP DP  RH WIND       PRES   REMARKS
NORFOLK        SUNNY     76  55  48 S14G24    29.82F
SO SIOUX CITY  SUNNY     76  53  44 S20       29.85F
TEKAMAH        SUNNY     74  53  48 S23       29.87F
COLUMBUS       SUNNY     75  57  53 S15G23    29.85F
ALBION         SUNNY     80  50  34 S9        29.81F
OMAHA EPPLEY   MOSUNNY   69  55  60 S18G31    29.90F
OFFUTT AFB     MOSUNNY   68  56  65 SE17      29.90F
MILLARD        MOSUNNY   67  56  66 S14G23    29.89F
LINCOLN        SUNNY     76  57  51 S18G25    29.87F
NEBRASKA CITY  PTSUNNY   64  52  66 S17       29.93F
BEATRICE       MOSUNNY   74  57  55 S18       29.88F
FALLS CITY     CLOUDY    58  52  80 E7        29.96F

...NORTHERN KANSAS...

CITY           SKY/WX    TMP DP  RH WIND       PRES   REMARKS
GOODLAND       MOSUNNY   80  45  28 S3        29.88F
HILL CITY      MOSUNNY   82  50  32 SE5       29.85F
NORTON         CLEAR     82  41  23 SE7       29.84S
PHILLIPSBURG   SUNNY     84  48  28 S7G18     29.83F
SMITH CENTER   SUNNY     84  46  26 SE12G17   29.84F
HAYS           SUNNY     84  50  30 S17       29.86F
RUSSELL        SUNNY     83  50  31 S16G25    29.86F
CONCORDIA      SUNNY     81  53  37 SW20G31   29.87F
SALINA         SUNNY     83  54  36 S17G26    29.89F
TOPEKA         CLOUDY    70  54  56 S10       29.97F



USA.gov is the U.S. government's official web portal to all federal, state and local government web resources and services.